Retour au catalogue

TITAN 3C TRANSTAGE DEB

ActifHEO
NORAD 36981·DEBRIS·🇺🇸 United States

Lancé Dec 21, 1965 depuis Cape Canaveral Space Force Station

Loading…

Prochains Passages (prochaines 24 heures)

TLE

FraisSource: Space-Track

Époque: Sep 8, 2026, 09:29 UTC

1 36981U 65108DM  26251.39514017  .00005914  00000-0  26296-2 0  9999
2 36981  29.7606  44.5583 6635981 141.5982 292.5278  3.10460505134283

Suivez TITAN 3C TRANSTAGE DEB en temps réel avec AllMySat

Download on the App Store